Torna al catalogo

CZ-4C R/B

AttivoLEO
NORAD 47858·ROCKET BODY·🇨🇳 China

Lanciato Mar 13, 2021 da Jiuquan Satellite Launch Center

Loading…

Prossimi Passaggi (prossime 24 ore)

TLE

AggiornatoSource: Space-Track

Epoca: Sep 14, 2026, 20:07 UTC

1 47858U 21020E   26257.83850067 -.00000041  00000-0  46207-4 0  9995
2 47858  63.4509 191.6672 0307577   0.2997 359.8169 13.67710617275069

Traccia CZ-4C R/B in tempo reale con AllMySat

Download on the App Store